EW7112 Weather Reports


Display with metric or nautical units.
time (UTC)temp
F
wind
direction
speed
MPH
gust
MPH
rain 1hr
in
rain 24hr
in
rain mn
in
humidity
%
barometer
mb
20260508064519 64 121 0.0 1.0 0.00 0.00 0.00 73 994.0
20260508063016 64 121 0.0 1.0 0.00 0.00 0.00 73 994.1
20260508061516 64 121 0.0 0.0 0.00 0.00 0.00 75 994.5
20260508060012 63 121 0.0 0.0 0.00 0.00 0.00 75 994.3
20260508054511 63 121 0.0 0.0 0.00 0.00 0.00 74 994.2
20260508053014 63 121 0.0 0.0 0.00 0.00 0.00 74 994.2
20260508051508 63 121 0.0 0.0 0.00 0.00 0.00 73 994.3
20260508050007 63 121 0.0 0.0 0.00 0.00 0.00 72 994.3
20260508044506 63 121 0.0 0.0 0.00 0.00 0.00 72 994.3
20260508043005 64 121 0.0 0.0 0.00 0.00 0.00 71 994.2
20260508041506 64 121 0.0 0.0 0.00 0.00 0.00 71 994.3
20260508040003 64 121 0.0 0.0 0.00 0.00 0.00 71 994.3
20260508034504 64 121 0.0 0.0 0.00 0.00 0.00 69 994.1
20260508033002 64 121 0.0 0.0 0.00 0.00 0.00 68 994.0
20260508031504 65 121 0.0 1.0 0.00 0.00 0.00 67 994.0
20260508030002 65 121 0.0 0.0 0.00 0.00 0.00 65 993.9
20260508024603 66 121 0.0 0.0 0.00 0.00 0.00 63 993.7
20260508023100 66 121 0.0 1.0 0.00 0.00 0.00 61 993.5
20260508021600 66 121 0.0 2.0 0.00 0.00 0.00 62 993.6
20260508020059 67 101 0.0 2.0 0.00 0.00 0.00 61 993.3
20260508014558 67 124 0.0 1.0 0.00 0.00 0.00 60 993.3
20260508013106 68 191 0.0 3.0 0.00 0.00 0.00 59 993.3
20260508011557 68 188 0.0 4.0 0.00 0.00 0.00 58 993.3
20260508010056 68 138 2.0 6.0 0.00 0.00 0.00 58 993.5
20260508004600 69 158 2.0 7.0 0.00 0.00 0.00 57 993.2
20260508003055 69 223 0.0 6.0 0.00 0.00 0.00 57 993.2
20260508001553 70 214 2.0 5.0 0.00 0.00 0.00 56 993.3
20260508000053 70 86 1.0 7.0 0.00 0.00 0.00 55 993.6
20260507234653 71 94 1.0 7.0 0.00 0.00 0.00 54 993.6
20260507233050 71 197 2.0 7.0 0.00 0.00 0.00 54 993.5
20260507231548 72 162 2.0 6.0 0.00 0.00 0.00 53 993.4
20260507230051 74 138 3.0 6.0 0.00 0.00 0.00 48 993.6
20260507224547 73 42 0.0 1.0 0.00 0.00 0.00 48 993.5
20260507223043 73 17 0.0 2.0 0.00 0.00 0.00 48 993.6
20260507221542 73 41 1.0 4.0 0.00 0.00 0.00 46 993.8
20260507220042 73 28 0.0 3.0 0.00 0.00 0.00 45 993.8
20260507214537 73 111 0.0 3.0 0.00 0.00 0.00 46 994.0
20260507213039 74 87 0.0 3.0 0.00 0.00 0.00 44 994.2
20260507211534 73 316 1.0 5.0 0.00 0.00 0.00 43 994.4
20260507210031 73 55 0.0 5.0 0.00 0.00 0.00 45 994.5
20260507204529 74 59 2.0 7.0 0.00 0.00 0.00 43 994.6
20260507203028 74 106 1.0 5.0 0.00 0.00 0.00 43 994.6
20260507201531 75 70 2.0 7.0 0.00 0.00 0.00 43 994.9
20260507200023 74 319 3.0 6.0 0.00 0.00 0.00 44 995.2
20260507194522 73 112 2.0 7.0 0.00 0.00 0.00 45 995.3
20260507193025 73 1 3.0 8.0 0.00 0.00 0.00 46 995.6
20260507191514 72 102 3.0 9.0 0.00 0.00 0.00 46 995.9
20260507190015 72 275 2.0 7.0 0.00 0.00 0.00 47 996.0
20260507184511 72 62 3.0 6.0 0.00 0.00 0.00 47 996.0
20260507183013 71 7 3.0 9.0 0.00 0.00 0.00 47 996.3
20260507181506 70 1 3.0 10.0 0.00 0.00 0.00 48 996.4
20260507180004 69 31 2.0 8.0 0.00 0.00 0.00 49 996.8
20260507174501 69 18 3.0 8.0 0.00 0.00 0.00 50 996.9
20260507173100 68 359 2.0 9.0 0.00 0.00 0.00 50 997.4
20260507171557 68 111 3.0 6.0 0.00 0.00 0.00 50 997.8
20260507170055 67 131 1.0 6.0 0.00 0.00 0.00 54 998.3
20260507164612 66 63 1.0 4.0 0.00 0.00 0.00 57 998.5
20260507163050 66 100 1.0 7.0 0.00 0.00 0.00 59 998.5
20260507161552 66 284 2.0 5.0 0.00 0.00 0.00 57 998.4
20260507160048 65 108 2.0 7.0 0.00 0.00 0.00 60 998.5
20260507154545 64 360 2.0 7.0 0.00 0.07 0.00 61 998.6
20260507153043 64 53 2.0 8.0 0.00 0.07 0.00 60 998.7
20260507151540 63 1 3.0 8.0 0.00 0.07 0.00 64 998.9
20260507150038 62 278 2.0 6.0 0.00 0.07 0.00 67 999.0
20260507144534 62 52 1.0 5.0 0.00 0.07 0.00 69 999.1
20260507143054 61 93 1.0 4.0 0.00 0.07 0.00 71 999.2
20260507141538 60 77 2.0 5.0 0.00 0.07 0.00 74 999.3
20260507140026 58 11 1.0 4.0 0.00 0.07 0.00 76 999.4
20260507134523 57 274 1.0 4.0 0.00 0.07 0.00 78 999.5
20260507133021 57 6 0.0 3.0 0.00 0.07 0.00 80 999.7
20260507131520 55 325 1.0 3.0 0.00 0.07 0.00 81 999.5
20260507130031 55 316 0.0 2.0 0.00 0.07 0.00 83 999.5
20260507124515 54 322 0.0 2.0 0.00 0.07 0.00 84 999.2
20260507123014 53 283 0.0 2.0 0.00 0.07 0.00 86 999.2
20260507121512 53 257 0.0 2.0 0.00 0.07 0.00 86 999.2
20260507120009 53 257 0.0 1.0 0.00 0.07 0.00 86 998.7
20260507114506 53 257 0.0 1.0 0.00 0.07 0.00 85 998.6
20260507113005 53 240 0.0 2.0 0.00 0.07 0.00 86 998.5
20260507111503 53 313 0.0 3.0 0.00 0.07 0.00 86 998.6
20260507110001 53 305 1.0 3.0 0.00 0.07 0.00 86 998.4
20260507104604 53 322 0.0 2.0 0.00 0.07 0.00 86 998.2
20260507103056 53 15 0.0 2.0 0.00 0.07 0.00 86 998.0
20260507101556 53 15 0.0 0.0 0.00 0.07 0.00 86 997.6
20260507100058 54 15 0.0 0.0 0.00 0.07 0.00 85 997.5
20260507094550 54 15 0.0 0.0 0.00 0.07 0.00 84 997.1
20260507093048 55 15 0.0 1.0 0.00 0.07 0.00 84 997.0
20260507091545 55 15 0.0 1.0 0.00 0.07 0.00 83 996.9
20260507090055 56 15 0.0 2.0 0.00 0.07 0.00 82 996.8
20260507084550 56 57 0.0 1.0 0.00 0.07 0.00 82 996.9
20260507083040 56 8 0.0 2.0 0.00 0.07 0.00 81 996.9
20260507081545 56 16 0.0 2.0 0.00 0.07 0.00 81 996.9
20260507080036 57 43 0.0 4.0 0.00 0.07 0.00 81 996.7
20260507074534 57 25 0.0 3.0 0.00 0.07 0.00 80 996.5
20260507073032 57 1 2.0 5.0 0.00 0.07 0.00 79 996.4
20260507071535 57 34 1.0 8.0 0.00 0.07 0.00 78 996.3
20260507070034 57 18 2.0 6.0 0.00 0.07 0.00 78 996.3